Satellite-Ground Cal/Val Region Overpasses Predictions

Prediction of Satellite NPP Overpassing Cal/Val Region: PacNW

Region Location: (Latitude: 10.00, Longitude: 139.50) to (Latitude: 22.70, Longitude: 165.60).

Table of predicted overpasses for the next 14.0 days since TLE Epoch: 2/21/2015
Interval Starting Time Starting Location Ending Time Ending Location
1 02/22/2015 02:58:14 ( 10.01, 156.74) 02/22/2015 03:01:50 ( 22.69, 153.73)
2 02/22/2015 15:30:07 ( 22.68, 153.95) 02/22/2015 15:33:43 ( 10.00, 150.94)
3 02/23/2015 02:39:12 ( 10.01, 161.49) 02/23/2015 02:42:48 ( 22.69, 158.49)
4 02/23/2015 15:11:05 ( 22.68, 158.70) 02/23/2015 15:14:40 ( 10.05, 155.71)
5 02/24/2015 02:20:59 ( 12.90, 165.59) 02/24/2015 02:23:45 ( 22.64, 163.26)
6 02/24/2015 04:01:40 ( 10.03, 140.87) 02/24/2015 04:03:20 ( 15.90, 139.51)
7 02/24/2015 14:52:02 ( 22.67, 163.46) 02/24/2015 14:55:37 ( 10.05, 160.46)
8 02/25/2015 03:42:37 ( 10.03, 145.63) 02/25/2015 03:46:12 ( 22.66, 142.63)
9 02/25/2015 14:36:07 ( 11.69, 165.59) 02/25/2015 14:36:35 ( 10.04, 165.22)
10 02/25/2015 16:14:30 ( 22.65, 142.83) 02/25/2015 16:18:05 ( 10.03, 139.84)
11 02/26/2015 03:23:35 ( 10.04, 150.38) 02/26/2015 03:27:10 ( 22.67, 147.39)
12 02/26/2015 15:55:27 ( 22.65, 147.59) 02/26/2015 15:59:02 ( 10.03, 144.60)
13 02/27/2015 03:04:32 ( 10.05, 155.14) 02/27/2015 03:08:07 ( 22.67, 152.14)
14 02/27/2015 15:36:24 ( 22.70, 152.36) 02/27/2015 15:40:00 ( 10.02, 149.35)
15 02/28/2015 02:45:30 ( 10.06, 159.89) 02/28/2015 02:49:05 ( 22.68, 156.90)
16 02/28/2015 15:17:21 ( 22.69, 157.11) 02/28/2015 15:20:57 ( 10.01, 154.10)
17 03/01/2015 02:26:26 ( 10.01, 164.66) 03/01/2015 02:30:02 ( 22.69, 161.65)
18 03/01/2015 14:58:19 ( 22.68, 161.86) 03/01/2015 15:01:54 ( 10.06, 158.87)
19 03/02/2015 03:48:54 ( 10.03, 144.03) 03/02/2015 03:52:29 ( 22.65, 141.04)
20 03/02/2015 14:40:28 ( 18.50, 165.60) 03/02/2015 14:42:52 ( 10.05, 163.63)
21 03/02/2015 16:20:46 ( 22.66, 141.24) 03/02/2015 16:22:48 ( 15.50, 139.51)
22 03/03/2015 03:29:51 ( 10.04, 148.79) 03/03/2015 03:33:26 ( 22.67, 145.80)
23
